Probability
1 4 13 21 22 19 15 11 6 2 1 1 0 0 0 0 0 0 0 0 0 0 0 0 0 0 0 0 0 0 0 0 0 0 0 0 0 0 0 0 0 0 0
3 6 15 24 26 22 17 12 6 3 2 1 0 0 0 0 0 0 0 0 0 0 0 0 0 0 0 0 0 0 0 0 0 0 0 0 0 0 0 0 0 0 0
6 10 18 26 28 22 17 11 6 2 1 1 1 1 1 1 0 0 0 0 0 0 1 0 0 0 0 0 0 1 0 0 0 0 0 0 0 0 0 0 0 0 0
10 14 21 27 27 19 12 8 6 3 2 2 2 2 2 2 1 0 0 0 0 0 0 0 0 0 0 0 0 0 0 0 0 0 0 0 0 0 0 0 0 0 0
12 17 23 26 23 16 8 7 7 6 6 5 5 4 3 2 1 0 1 0 0 0 1 1 2 1 0 0 0 0 0 0 0 0 0 0 0 0 0 0 0 0 0
14 18 22 23 20 15 12 11 11 11 11 11 9 6 5 4 2 1 1 0 0 1 1 2 2 2 0 0 0 0 0 0 0 0 0 0 0 0 0 0 0 0 0
15 17 19 20 21 21 21 21 20 18 19 19 16 13 11 8 5 3 3 2 1 1 1 1 2 1 0 0 0 0 0 0 0 0 0 0 0 0 0 0 0 0 0
13 15 17 21 25 29 32 33 29 26 25 26 24 21 18 14 10 7 6 4 2 1 0 0 0 0 0 1 1 0 0 0 0 0 0 0 0 0 0 0 0 0 0
13 14 18 23 26 31 36 38 34 30 29 29 27 24 22 20 15 10 8 5 2 0 0 0 0 0 0 1 2 1 0 0 0 0 0 0 0 0 0 0 0 0 0
14 15 19 23 26 29 34 38 36 32 29 27 25 23 23 21 17 14 11 6 3 1 0 0 0 1 1 2 2 1 0 0 0 0 0 0 0 0 0 0 0 0 0
16 18 21 23 26 31 34 37 35 30 26 24 22 22 22 21 18 16 13 9 5 3 1 0 0 1 2 2 2 1 0 1 0 0 0 0 0 0 0 0 0 0 0
19 20 22 24 28 32 34 34 30 24 22 22 21 21 21 20 17 13 11 10 8 5 2 1 0 1 3 3 1 0 0 0 0 0 1 1 1 1 1 1 0 0 0
19 19 21 25 29 31 31 30 25 21 20 21 20 20 21 20 17 12 10 10 9 7 4 2 1 1 3 3 1 0 1 1 1 1 2 2 2 2 2 2 1 1 0
19 20 20 24 30 32 30 28 26 24 23 22 22 23 24 23 19 14 12 10 8 7 5 3 2 1 2 2 1 1 2 2 2 2 3 3 3 3 3 3 3 2 1
24 23 21 23 28 31 30 29 28 27 26 25 25 24 24 22 19 15 12 9 8 6 5 3 2 1 1 1 1 2 3 3 3 3 3 3 3 3 3 2 3 3 3
25 23 21 23 27 28 28 28 26 25 24 24 24 22 20 18 16 13 11 9 7 6 4 3 3 2 2 2 1 2 3 3 3 3 3 3 3 3 1 1 1 2 2
21 20 19 22 25 26 25 24 22 20 19 19 19 17 16 16 15 13 11 9 7 6 4 3 3 3 3 3 2 2 3 3 3 3 3 3 2 2 1 1 1 1 2
19 18 18 21 24 24 22 21 20 19 17 16 15 14 15 15 14 12 10 8 7 6 5 4 3 3 3 3 2 2 3 3 3 3 2 2 1 1 2 2 2 2 2
22 20 20 21 22 21 20 20 20 20 19 17 15 13 14 14 13 11 8 7 6 5 4 3 3 2 2 2 1 2 3 3 3 2 2 1 1 1 1 3 3 3 3
26 24 23 22 22 21 20 20 19 19 17 16 14 13 13 13 12 9 7 6 5 4 3 2 1 1 1 1 0 1 4 4 3 3 2 1 1 1 1 2 2 2 2
27 26 24 22 22 22 21 19 17 14 13 12 12 12 12 11 9 8 7 6 5 4 3 2 1 1 1 1 1 2 3 4 3 3 2 1 1 0 0 1 1 1 1
28 25 23 23 22 22 21 18 14 11 9 9 11 11 10 9 8 6 6 6 5 4 3 2 2 2 2 2 2 2 2 2 2 2 1 1 0 0 0 0 0 0 0
27 24 23 23 21 19 18 15 11 9 9 9 10 10 9 8 7 6 5 4 4 3 3 3 3 3 3 1 1 1 0 1 1 1 0 0 0 0 0 0 0 0 0
22 22 22 22 19 15 13 11 9 8 8 9 9 9 9 8 7 6 4 3 3 3 3 3 3 3 3 1 0 0 0 0 0 0 0 0 0 0 0 0 0 0 0
18 19 20 18 14 9 7 6 6 5 5 6 6 7 7 7 6 5 4 3 3 3 3 3 3 3 3 2 0 0 0 0 0 0 0 0 0 0 0 0 0 0 0
17 17 16 14 10 6 4 4 4 4 4 4 4 5 6 6 6 5 4 3 3 3 3 3 3 3 3 1 0 0 0 0 0 0 0 0 0 0 0 0 0 0 0
Wind_Speed
9 8 8 8 8 7 7 7 7 6 5 3 3 2 2 2 2 3 4 4 4 4 4 3 3 3 3 3 3 2 1 1 0 0 2 2 2 3 3 3 3 4 5
7 8 9 9 9 9 8 8 8 8 7 5 3 2 2 2 2 2 3 4 4 4 4 4 3 3 2 2 3 2 1 1 1 2 0 2 3 2 2 2 3 4 3
11 10 10 11 10 11 10 9 8 7 7 5 3 2 2 1 1 1 2 3 4 4 4 4 3 3 3 3 3 3 3 2 1 2 2 2 3 2 2 2 2 2 2
9 9 10 11 11 11 10 8 8 7 6 6 5 5 4 4 4 3 2 3 4 4 4 4 4 4 3 4 4 3 3 3 2 2 2 2 2 2 2 2 1 2 2
11 11 12 11 10 10 9 8 8 7 6 6 7 6 4 4 2 2 3 3 3 3 4 4 4 4 3 4 3 3 3 3 3 2 2 2 2 2 2 3 2 1 2
11 10 9 8 8 8 7 7 7 7 6 7 6 7 7 5 4 3 3 3 2 2 4 4 4 4 3 4 4 3 4 3 3 3 3 3 2 3 3 4 3 2 2
10 10 9 10 9 9 9 8 8 7 7 7 7 7 7 6 6 5 4 4 3 3 4 4 4 4 4 4 3 3 3 4 4 4 3 3 3 3 3 3 2 2 2
9 10 11 11 11 11 9 9 9 8 7 8 7 6 5 4 4 4 4 4 4 4 3 4 4 4 4 4 3 3 3 3 3 4 3 3 3 3 3 3 2 2 2
8 9 9 9 10 10 10 10 9 7 7 7 6 5 5 5 5 4 3 3 3 3 3 3 3 3 3 3 3 2 3 2 2 3 2 2 2 2 3 2 3 2 2
4 6 7 8 8 8 8 8 8 8 7 6 6 5 5 5 4 3 3 3 2 2 2 2 2 2 2 3 2 2 2 2 2 1 2 2 1 1 2 2 2 2 2
4 5 5 6 7 6 7 7 6 6 5 6 5 4 4 3 3 3 3 3 2 2 2 2 2 2 1 1 2 2 2 2 1 1 1 1 1 0 0 1 1 1 2
4 5 6 6 6 6 6 6 6 6 5 5 4 4 3 3 3 2 2 2 2 2 2 2 2 1 1 1 2 2 2 2 1 0 0 1 0 1 0 1 1 1 1
4 5 6 6 6 5 5 5 5 4 4 4 4 3 3 3 3 2 2 2 2 2 2 2 2 1 1 2 2 2 2 2 1 1 1 0 1 1 1 2 2 1 2
4 5 5 5 5 5 5 5 5 4 4 4 4 3 3 3 3 3 3 3 2 2 2 2 1 1 1 1 2 3 3 3 2 2 1 1 2 1 1 2 2 2 3
4 5 4 4 4 4 4 5 5 4 5 5 4 3 3 3 3 3 3 3 3 3 2 3 2 2 1 1 3 3 4 4 3 3 3 3 4 5 4 3 3 3 3
4 4 4 4 4 5 5 5 5 5 5 5 4 3 3 4 4 3 3 4 4 3 4 3 3 3 2 4 5 5 4 4 3 3 3 4 4 6 7 8 7 6 4
5 5 5 5 5 5 5 6 6 6 6 5 4 4 4 5 4 4 4 4 4 4 4 4 4 4 3 5 6 7 5 4 4 3 3 4 5 6 6 9 10 9 9
5 5 4 5 5 5 6 6 6 6 6 5 4 5 5 5 5 5 5 4 4 4 4 4 4 4 4 7 7 8 6 5 5 5 4 5 5 6 6 7 8 8 8
5 5 4 5 6 6 7 8 7 6 6 5 5 4 5 6 6 5 5 4 4 5 4 5 5 5 5 6 7 7 5 6 7 6 6 6 6 8 9 8 8 8 7
5 5 6 6 6 6 7 8 7 7 6 5 5 5 5 6 6 5 5 4 5 5 5 5 5 5 5 6 7 7 5 6 6 6 7 9 9 9 9 7 7 7 5
6 7 7 6 6 6 7 8 7 6 6 6 6 6 6 6 6 5 5 5 5 6 6 6 5 5 5 6 7 6 4 5 6 5 5 5 10 11 10 8 6 6 5
8 8 8 6 6 6 8 8 6 6 7 7 7 7 6 6 5 6 6 5 6 6 5 5 5 4 5 6 7 8 7 6 6 5 4 5 10 11 11 8 8 8 7
7 7 8 8 6 6 7 8 6 7 8 8 7 7 7 6 5 5 6 5 5 4 4 4 4 3 4 5 9 9 9 9 7 5 8 9 10 10 8 10 9 7 5
7 7 9 8 6 5 6 7 7 7 8 9 7 7 7 6 5 4 4 4 4 4 3 3 3 3 3 3 3 4 6 8 8 6 8 10 11 8 7 7 6 5 4
6 7 8 8 7 6 6 6 7 8 8 8 7 7 6 6 6 5 4 3 2 2 3 3 3 3 3 1 3 4 4 4 5 6 5 5 4 5 4 4 4 4 4
6 7 7 7 7 7 6 6 6 8 9 7 6 5 5 5 5 5 6 10 7 6 5 5 4 3 4 6 7 8 8 8 8 6 5 4 3 3 3 3 3 3 3
Wind_Direction
208 191 192 187 180 180 181 181 178 175 167 162 167 172 197 202 205 210 206 200 201 195 196 215 202 193 203 213 199 189 209 235 177 50 319 306 270 249 243 241 238 239 238
199 193 189 186 186 185 187 185 185 182 183 181 172 168 162 188 208 213 204 200 203 203 209 209 207 199 206 217 205 183 177 216 165 159 168 324 327 305 256 241 237 246 242
206 197 192 192 190 191 192 192 191 191 191 176 146 127 107 98 164 212 211 204 199 201 209 209 209 207 199 212 212 193 188 208 216 192 169 184 253 298 303 266 250 254 241
204 199 195 194 195 197 189 187 188 190 190 176 174 175 180 195 208 202 205 213 206 208 208 208 207 212 212 216 220 200 194 189 221 221 214 207 196 221 294 302 286 274 261
199 199 199 196 195 190 186 187 184 187 186 184 189 186 196 201 194 189 199 215 217 214 214 209 209 214 218 222 221 202 201 199 212 213 205 214 223 218 230 274 293 301 272
199 200 196 183 186 184 184 182 180 188 185 184 192 196 202 200 193 201 205 212 217 220 218 210 210 215 218 221 220 212 208 212 219 222 208 200 205 209 211 241 263 277 283
195 193 187 182 182 183 186 185 184 192 188 188 198 202 203 199 204 208 209 207 211 218 222 214 213 214 216 217 211 209 219 213 219 225 227 221 224 207 200 219 246 266 280
193 194 191 185 184 184 186 185 189 195 191 196 205 204 200 198 209 209 206 209 216 222 218 211 214 216 213 215 203 205 217 215 225 234 227 225 230 216 205 202 201 246 273
192 192 187 180 181 183 188 186 189 193 194 198 198 200 199 203 209 206 203 211 219 223 218 210 208 210 209 210 200 206 220 212 226 237 229 232 239 219 213 202 196 200 249
184 183 179 174 176 182 182 181 186 192 195 195 198 201 199 205 203 192 199 206 212 211 198 194 190 196 205 206 194 196 213 203 229 230 226 237 251 230 212 205 204 201 200
170 165 165 165 165 167 171 175 180 186 190 191 192 192 189 191 181 181 193 193 185 179 181 178 176 178 180 170 165 178 176 176 213 258 220 256 246 221 220 184 176 178 165
140 137 144 146 152 158 161 164 170 181 187 179 170 175 169 164 163 173 177 164 161 152 159 151 146 143 136 135 150 167 165 150 150 181 88 323 360 62 54 100 116 136 147
121 128 135 143 153 157 156 159 158 170 166 153 155 156 157 158 160 159 145 130 128 118 118 125 132 139 136 132 137 142 131 124 116 107 115 74 91 77 65 81 92 104 113
133 135 138 143 148 146 146 149 146 149 138 134 141 151 161 159 150 137 125 115 115 114 116 116 114 119 121 128 132 123 114 101 85 75 84 95 110 118 108 94 93 100 100
135 146 149 145 137 133 133 133 128 126 128 128 131 142 141 131 125 121 120 110 102 97 90 85 74 65 84 111 120 116 110 103 87 69 66 76 83 84 92 98 100 104 101
160 156 147 140 138 141 141 133 128 127 128 131 136 132 123 113 111 114 111 104 95 85 83 83 80 71 70 86 103 112 104 99 95 84 72 71 71 79 80 81 83 92 103
170 164 158 152 148 143 135 135 132 127 127 131 127 111 107 104 100 100 97 97 97 94 89 83 80 78 75 88 97 101 100 90 81 79 77 72 68 73 80 76 69 64 69
168 166 153 141 135 127 122 123 122 125 127 125 119 113 112 106 99 96 94 92 93 93 92 85 81 76 70 79 90 95 92 83 74 72 77 82 74 73 85 83 73 63 56
162 156 146 137 130 128 129 125 122 121 119 118 115 109 110 107 100 99 98 96 92 86 84 82 80 79 69 71 87 92 88 82 70 63 65 78 80 74 84 87 82 69 55
137 133 124 120 122 126 127 125 124 123 123 124 119 112 110 111 109 106 100 92 91 87 83 78 74 76 69 65 81 92 95 91 82 70 64 68 78 76 78 86 89 82 62
131 129 125 125 127 128 125 123 123 124 125 120 113 107 104 106 106 102 96 96 96 91 85 78 67 64 63 64 71 85 97 103 97 86 74 69 77 76 73 74 80 88 86
133 132 128 123 121 127 127 125 124 121 118 114 109 105 102 104 104 102 97 94 99 96 90 83 68 53 50 61 72 81 89 98 100 94 87 81 80 77 73 72 75 76 75
134 129 128 124 123 129 133 130 126 123 118 111 108 105 99 92 97 103 105 100 96 100 99 96 86 67 57 62 72 80 85 88 91 91 92 87 82 78 72 67 69 69 71
134 131 129 130 130 126 121 123 127 124 120 117 113 109 104 98 87 84 91 103 107 111 111 109 106 93 73 70 76 84 88 87 88 88 84 80 74 71 67 60 55 56 64
137 137 136 135 137 129 122 125 129 127 123 121 116 111 106 107 96 79 61 76 73 117 136 135 135 131 120 108 115 119 110 110 111 105 86 76 70 64 60 58 54 53 58
137 133 131 134 133 131 130 131 134 135 132 128 125 121 119 113 110 104 79 54 63 71 84 106 117 99 112 120 114 112 112 112 117 102 95 89 84 81 76 72 62 52 51